[[{"header":{"parameterUnit":"m.s-1","parameterCategory":1,"la1":30.2992,"la2":30.254,"lo1":-89.0895,"lo2":-89.0443,"dy":0.0025,"dx":0.0025,"nx":19,"ny":19,"refTime":"2026-04-11T03:00:00:Z","depth":0,"parameterNumber":2,"parameterNumberName":"U-component_of_WINDS"},"data":[0,0,0,-2.2903,-2.2905,-2.2998,-2.2998,-2.3128,-2.313,0,0,0,0,0,0,0,0,0,0,0,-2.2881,-2.2883,-2.2902,-2.2905,-2.2998,-2.2998,-2.3128,-2.313,0,0,0,0,0,0,0,0,0,0,0,-2.2881,-2.2882,-2.2884,-2.2905,-2.2998,-2.2998,-2.3128,-2.3054,0,0,0,0,0,0,0,0,0,0,-2.2961,-2.2948,-2.2882,-2.2884,-2.2906,-2.2998,-2.2998,-2.305,-2.3058,-2.3091,0,-2.3121,0,-2.3128,-2.3139,-2.314,0,0,0,-2.29,-2.2941,-2.296,-2.2884,-2.2907,-2.2998,-2.2955,-2.3055,-2.3064,-2.3102,-2.3123,-2.3127,-2.313,-2.314,-2.3141,-2.3344,-2.3345,0,0,-2.2895,-2.2902,-2.2954,-2.2967,-2.2953,-2.2952,-2.2958,-2.306,-2.3083,-2.3123,-2.313,-2.3132,-2.3141,-2.3142,-2.3343,-2.3344,0,0,0,-2.2884,-2.2898,-2.2915,-2.2962,-2.2978,-2.2955,-2.2961,-2.3079,-2.3084,-2.3132,-2.3133,-2.3142,-2.3143,-2.3341,-2.3343,-2.3407,0,0,0,-2.288,-2.2891,-2.2913,-2.2918,-2.2976,-2.3029,-2.2978,-2.3077,-2.3088,-2.3133,-2.3142,-2.3145,-2.334,-2.3342,-2.3403,-2.3436,0,0,0,-2.2873,-2.289,-2.2906,-2.2918,-2.2958,-2.3028,-2.3038,-2.3079,-2.3089,-2.314,-2.3145,-2.3339,-2.3342,-2.3399,-2.343,-2.3492,0,0,0,-2.2867,-2.2961,-2.2907,-2.3013,-2.2957,-2.3067,-2.3037,-2.3118,-2.3169,-2.3142,-2.334,-2.3343,-2.3397,-2.3425,-2.3487,-2.3545,-2.3569,0,0,-2.299,-2.2976,-2.3038,-2.2992,-2.3113,-2.3052,-2.3182,-2.3222,-2.3221,-2.3303,-2.3308,-2.3404,-2.3429,-2.3491,-2.3706,-2.3726,0,0,0,-2.3079,-2.3124,-2.3154,-2.3203,-2.3236,-2.3268,-2.3288,-2.3303,-2.3372,-2.3265,-2.3443,-2.3458,-2.3494,-2.3521,-2.3538,-2.3568,-2.3356,-2.3356,-2.3355,-2.3261,-2.3255,-2.3357,-2.3362,-2.341,-2.343,-2.3469,-2.3493,-2.3472,-2.3515,-2.3539,-2.367,-2.3702,-2.3715,-2.3747,-2.3569,-2.3569,-2.357,-2.357,-2.3439,-2.3501,-2.3473,-2.3561,-2.3555,-2.3629,-2.3653,-2.3637,-2.3705,-2.3651,-2.3683,-2.3624,-2.3736,-2.3764,-2.3575,-2.3574,-2.3573,-2.3573,-2.3572,-2.3557,-2.3585,-2.3602,-2.3673,-2.3729,-2.3731,-2.3799,-2.3791,-2.3783,-2.3814,-2.3839,-2.3838,-2.3836,-2.3827,-2.3827,-2.3828,-2.3828,-2.3829,-2.3829,-2.3672,-2.3689,-2.3747,-2.3791,-2.3822,-2.3862,-2.3884,-2.3914,-2.3946,-2.3934,-2.3934,-2.391,-2.3749,-2.3708,-2.3836,-2.3835,-2.3834,-2.3833,-2.3833,-2.3853,-2.3811,-2.3901,-2.3932,-2.3984,-2.4039,-2.4029,-2.4091,-2.4115,-2.4149,-2.4119,-2.4001,-2.3986,-2.3973,-2.3939,-2.4119,-2.4119,-2.4119,-2.4119,-2.3953,-2.3945,-2.4035,-2.4085,-2.4133,-2.4133,-2.4235,-2.4254,-2.4267,-2.4282,-2.4255,-2.4209,-2.4196,-2.419,-2.4172,-2.414,-2.4367,-2.4368,-2.4368,-2.4064,-2.4061,-2.4149,-2.4161,-2.4201,-2.4236,-2.4332,-2.4392,-2.4398,-2.4378,-2.4293,-2.4282,-2.4209,-2.4186,-2.4163,-2.4135,-2.4077,0,0]},{"header":{"parameterUnit":"m.s-1","parameterCategory":1,"la1":30.2992,"la2":30.254,"lo1":-89.0895,"lo2":-89.0443,"dy":0.0025,"dx":0.0025,"nx":19,"ny":19,"refTime":"2026-04-11T03:00:00:Z","depth":0,"parameterNumber":3,"parameterNumberName":"V-component_of_WINDS"},"data":[0,0,0,0.7059,0.7061,0.7146,0.7146,0.7251,0.7252,0,0,0,0,0,0,0,0,0,0,0,0.703,0.7031,0.7059,0.7061,0.7146,0.7146,0.7251,0.7252,0,0,0,0,0,0,0,0,0,0,0,0.703,0.7031,0.7031,0.7061,0.7146,0.7146,0.725,0.7188,0,0,0,0,0,0,0,0,0,0,0.7107,0.7075,0.703,0.7031,0.7062,0.7146,0.7146,0.7185,0.7192,0.721,0,0.7224,0,0.7239,0.7258,0.7259,0,0,0,0.7065,0.707,0.7096,0.7031,0.7063,0.7145,0.7109,0.7189,0.7197,0.7219,0.7225,0.7229,0.7241,0.7259,0.7259,0.735,0.7351,0,0,0.706,0.7044,0.7091,0.7101,0.7086,0.7106,0.7111,0.7194,0.72,0.7226,0.7232,0.7243,0.726,0.726,0.735,0.7351,0,0,0,0.7044,0.704,0.7065,0.7096,0.7112,0.7108,0.7114,0.7196,0.7206,0.7233,0.7244,0.726,0.7261,0.735,0.735,0.7348,0,0,0,0.7041,0.7031,0.7062,0.7053,0.711,0.7155,0.7115,0.72,0.721,0.7243,0.726,0.7262,0.735,0.735,0.7347,0.7349,0,0,0,0.7026,0.7029,0.704,0.7052,0.7088,0.7154,0.7168,0.7202,0.7216,0.7259,0.7263,0.7349,0.735,0.7347,0.7348,0.7369,0,0,0,0.7005,0.7036,0.704,0.7079,0.7087,0.7151,0.7168,0.7216,0.7252,0.7261,0.735,0.735,0.7346,0.7348,0.7368,0.7383,0.7388,0,0,0.7035,0.7039,0.7064,0.7069,0.7128,0.7139,0.7199,0.7248,0.7267,0.7322,0.7325,0.7347,0.7348,0.7369,0.7418,0.7422,0,0,0,0.7068,0.7085,0.7104,0.7137,0.7175,0.7208,0.725,0.7268,0.7316,0.7292,0.7361,0.7362,0.7374,0.7382,0.7385,0.7398,0.7353,0.7353,0.7353,0.7087,0.711,0.7152,0.7186,0.7218,0.7261,0.729,0.7323,0.7337,0.7353,0.7369,0.7396,0.7405,0.7407,0.742,0.7379,0.7379,0.7379,0.7379,0.7134,0.7162,0.7181,0.7228,0.7253,0.7294,0.7338,0.7347,0.739,0.7386,0.7398,0.7391,0.741,0.7423,0.7379,0.7379,0.7379,0.7379,0.7379,0.7149,0.7167,0.7188,0.7239,0.7277,0.7311,0.7351,0.7373,0.7394,0.7406,0.7426,0.7427,0.743,0.7414,0.7414,0.7414,0.7415,0.7415,0.7415,0.7156,0.718,0.7211,0.7255,0.728,0.7315,0.736,0.7386,0.7421,0.7434,0.7434,0.7447,0.7408,0.7397,0.7416,0.7416,0.7416,0.7416,0.7416,0.7195,0.719,0.7237,0.7262,0.7316,0.7353,0.738,0.7431,0.7456,0.7476,0.7487,0.7454,0.746,0.7458,0.745,0.7481,0.7481,0.7481,0.7481,0.7208,0.7213,0.7267,0.7306,0.7346,0.7376,0.7432,0.7468,0.7505,0.7522,0.7521,0.7512,0.7509,0.7517,0.7513,0.7506,0.7551,0.7551,0.7551,0.7234,0.7244,0.7285,0.732,0.7365,0.7403,0.7456,0.7502,0.7543,0.7554,0.7536,0.7533,0.7519,0.7513,0.7523,0.7518,0.7505,0,0]}]]